STARLINK-32948, 63123

Orbit data source: Space-Track

STARLINK-32948, 63123 is a payload satellite owned by SpaceX/Seattle (US) in LEO that was launched on Thu, 27 Feb 2025 UTC via an FALCON 9 launch vehicle from the Air Force Eastern Test Range (AFETR). Payload-class satellites include a variety of spacecraft equipped with specific instruments for various scientific and technological missions. These include communications satellites like Starlink; space stations such as the ISS; scientific satellites like the Hubble; Earth observation satellites from companies like Planet Labs, Umbra, and HawkEye 360; GPS; miniature CubeSats for education and research; and military/defense satellites.

Loading next visibility...
Identifier
63123, 2025-039V
Orbit
LEO
Country
Flag of USUS
Related business
Manufacturer
SpaceX/Seattle
Mission
Operational Commercial Communications
Bus & Motor
STARLINK V2M, Unknown motor
Mass
730 kg wet, ~700 kg dry
Launch date (UTC)
2025-02-27 (2 years ago)
Launch vehicle
FALCON 9
Launch site
Air Force Eastern Test Range (AFETR)
Object type
Payload
Rocket body
Debris
Shape & HBR
Box + 2 Pan, 17.7 m
Radar Cross Section
33.884 m², Large (>1 m²)

Expand to show TLE details & history
Last TLE update: 1 day ago

TLE from 1 day ago
0 STARLINK-32948
1 63123U 25039V   26252.72988263  .00013124  00000-0  48578-3 0  9992
2 63123  42.9993  53.3892 0001255 262.9227  97.1482 15.27566105 86212
Epoch: 2026-09-09T17:31Z
TLE epoch observation values (Epoch: 2026-09-09T17:31:01.859Z)
Latitude
-0°
Longitude
161.8537°
Altitude
482.973 km
Speed
7.626 km/s
True Right ascension
03h 33m 33s
True Declination
0° 00' 00"
Sunlit
Object was in full shadow at epoch
Visualization orbit readout
Latitude
Unknown
Longitude
Unknown
Altitude
Unknown
Speed
Unknown
Apparent Right ascension
Unknown
Apparent Declination
Unknown
Sunlit
N/A
Visualization observer readout
Local Sidereal Time
17:45:46
Azimuth
Unknown
Elevation
Unknown
Doppler factor
Unknown
Orbital elements
Apogee altitude
485.897 km
Perigee altitude
484.175 km
Semi-major axis
6,863.173 km
Eccentricity
0.00013
Inclination
42.9993°
RAAN
53.3892°
Arg. of periapsis
262.9227°
True anomaly
97.16247°
Mean anomaly
97.1482°
Eccentric anomaly
97.15533°
Mean motion
3.8173 °/min
Orbital period
94.31 mins
BSTAR
0.00048578
Loading maneuver chart data...
Computing Atmospheric mass density...
Loading historical data...
Loading historical data...
Loading historical data...
Loading historical data...
Loading historical data...
Loading historical data...
Loading historical data...

Documentation

Showing up to 5 results
|